Weather History for KBBG - September, 2014

Change the Weather History Date:

Wednesday, September 10, 2014

  Actual Average (KHRO) Record (KHRO)
Temperature  
Mean Temperature 83 °F 71 °F  
Max Temperature 93 °F 83 °F 100 °F (1938)
Min Temperature 73 °F 60 °F 40 °F (1956)
Degree Days  
Heating Degree Days 0 0  
Month to date heating degree days 0  
Since 1 July heating degree days 1  
Cooling Degree Days 18 7  
Month to date cooling degree days 82  
Year to date cooling degree days 1293  
Growing Degree Days 33 (Base 50)    
Moisture  
Dew Point 70 °F    
Average Humidity 77    
Maximum Humidity 89    
Minimum Humidity 44    
Precipitation  
Precipitation 0.00 in 0.16 in 1.79 in (2014)
Month to date precipitation 1.32  
Year to date precipitation 30.28  
Snow  
Snow 0.00 in 0.00 in - ()
Month to date snowfall 0.0  
Since 1 July snowfall 0.0  
Since 1 September snowfall 0.0  
Snow Depth -    
Sea Level Pressure  
Sea Level Pressure 29.83 in    
Wind  
Wind Speed 8 mph (SSW)    
Max Wind Speed 13 mph    
Max Gust Speed 21 mph    
Visibility 10 miles    
Events Rain , Thunderstorm    
T = Trace of Precipitation, MM = Missing Value Source: NWS Daily Summary

Daily Weather History Graph

Daily Weather History Graph

Search for Another Location

Airport or City:

Trip Planner

Search our weather history database for the weather conditions in past years. The results will help you decide how hot, cold, wet, or windy it might be!

Date:

Astronomy

Sep. 10, 2014 Rise Set
Actual Time 6:51 AM CDT 7:27 PM CDT
Civil Twilight 6:25 AM CDT 7:53 PM CDT
Nautical Twilight 5:54 AM CDT 8:24 PM CDT
Astronomical Twilight 5:23 AM CDT 8:55 PM CDT
Moon 8:31 PM CDT (9/10) 8:35 AM CDT (9/10)
Length of Visible Light 13h 28m
Length of Day
12h 36m
Waning Gibbous, 96% of the Moon is Illuminated
Sep 10
Waning Gibbous
Sep 15
Last Quarter
Sep 24
New
Oct 1
First Quarter
Oct 8
Full

Hourly Weather History & Observations

Time (CDT) Temp. Heat Index Dew Point Humidity Pressure Visibility Wind Dir Wind Speed Gust Speed Precip Events Conditions
12:15 AM 77.0 °F - 69.8 °F 78% 29.83 in 10.0 mi SSE 8.1 mph - N/A   Clear
12:35 AM 77.0 °F - 69.8 °F 78% 29.82 in 10.0 mi South 10.4 mph - N/A   Clear
12:55 AM 77.0 °F - 69.8 °F 78% 29.82 in 10.0 mi South 8.1 mph - N/A   Clear
1:15 AM 77.0 °F - 69.8 °F 78% 29.83 in 10.0 mi South 8.1 mph - N/A   Clear
1:35 AM 77.0 °F - 69.8 °F 78% 29.83 in 10.0 mi SSE 8.1 mph - N/A   Clear
1:55 AM 77.0 °F - 69.8 °F 78% 29.82 in 10.0 mi South 8.1 mph 16.1 mph N/A   Clear
2:15 AM 77.0 °F - 69.8 °F 78% 29.81 in 10.0 mi South 6.9 mph - N/A   Clear
2:35 AM 77.0 °F - 69.8 °F 78% 29.81 in 10.0 mi South 9.2 mph - N/A   Clear
2:55 AM 77.0 °F - 69.8 °F 78% 29.81 in 10.0 mi South 4.6 mph - N/A   Clear
3:15 AM 77.0 °F - 69.8 °F 78% 29.81 in 10.0 mi South 8.1 mph - N/A   Clear
3:35 AM 77.0 °F - 69.8 °F 78% 29.80 in 10.0 mi South 9.2 mph - N/A   Clear
3:55 AM 77.0 °F - 69.8 °F 78% 29.79 in 10.0 mi South 9.2 mph 16.1 mph N/A   Clear
4:15 AM 77.0 °F - 69.8 °F 78% 29.79 in 10.0 mi South 11.5 mph 17.3 mph N/A   Clear
4:35 AM 77.0 °F - 69.8 °F 78% 29.79 in 10.0 mi South 9.2 mph 16.1 mph N/A   Clear
4:55 AM 77.0 °F - 68.0 °F 74% 29.78 in 10.0 mi South 9.2 mph 16.1 mph N/A   Clear
5:15 AM 77.0 °F - 68.0 °F 74% 29.77 in 10.0 mi South 6.9 mph 18.4 mph N/A   Clear
5:35 AM 77.0 °F - 68.0 °F 74% 29.77 in 10.0 mi South 9.2 mph 18.4 mph N/A   Clear
5:55 AM 77.0 °F - 68.0 °F 74% 29.77 in 10.0 mi SSW 12.7 mph 18.4 mph N/A   Clear
6:15 AM 77.0 °F - 68.0 °F 74% 29.79 in 10.0 mi SSW 8.1 mph - N/A   Scattered Clouds
6:35 AM 77.0 °F - 68.0 °F 74% 29.80 in 10.0 mi SW 6.9 mph 17.3 mph N/A   Mostly Cloudy
6:45 AM 77.0 °F - 68.0 °F 74% 29.80 in 10.0 mi SW 6.9 mph - N/A   Overcast
7:45 AM 75.2 °F - 69.8 °F 83% 29.80 in 7.0 mi SSW 8.1 mph 16.1 mph N/A Rain Light Rain
9:45 AM 75.2 °F - 71.6 °F 89% 29.81 in 10.0 mi SSW 9.2 mph - N/A   Overcast
10:45 AM 75.2 °F - 71.6 °F 89% 29.81 in 10.0 mi South 9.2 mph - N/A   Overcast
12:45 PM 91.4 °F 98.4 °F 71.6 °F 52% 29.81 in 10.0 mi SW 6.9 mph - N/A   Partly Cloudy
1:50 PM 93.2 °F 97.7 °F 68.0 °F 44% 29.80 in 10.0 mi WSW 12.7 mph 20.7 mph N/A   Mostly Cloudy
3:45 PM 91.4 °F 96.8 °F 69.8 °F 49% 29.80 in 10.0 mi WNW 5.8 mph - N/A   Overcast
4:55 PM 84.2 °F 89.6 °F 71.6 °F 66% 29.80 in 10.0 mi WNW 5.8 mph - N/A   Overcast
5:50 PM 86.0 °F 91.8 °F 71.6 °F 62% 29.80 in 10.0 mi West 5.8 mph - N/A   Mostly Cloudy
6:45 PM 84.2 °F 90.9 °F 73.4 °F 70% 29.81 in 10.0 mi WNW 8.1 mph - N/A   Overcast
7:50 PM 78.8 °F - 71.6 °F 78% 29.83 in 10.0 mi Calm Calm - N/A   Overcast
8:45 PM 77.0 °F - 71.6 °F 83% 29.86 in 10.0 mi NW 5.8 mph - N/A   Overcast
9:15 PM 77.0 °F - 71.6 °F 83% 29.88 in 10.0 mi NNW 12.7 mph 17.3 mph N/A   Overcast
9:35 PM 75.2 °F - 71.6 °F 89% 29.90 in 10.0 mi NNW 10.4 mph - N/A   Overcast
9:55 PM 73.4 °F - 69.8 °F 88% 29.90 in 10.0 mi NW 10.4 mph - N/A Thunderstorm Overcast
10:15 PM 73.4 °F - 69.8 °F 88% 29.92 in 10.0 mi Calm Calm - N/A Thunderstorm Overcast
10:35 PM 73.4 °F - 68.0 °F 83% 29.93 in 10.0 mi NW 8.1 mph - N/A Thunderstorm Overcast
10:55 PM 73.4 °F - 68.0 °F 83% 29.93 in 10.0 mi North 9.2 mph - N/A   Overcast
11:15 PM 73.4 °F - 68.0 °F 83% 29.93 in 10.0 mi North 3.5 mph - N/A Thunderstorm Overcast
11:35 PM 73.4 °F - 68.0 °F 83% 29.93 in 10.0 mi NNW 10.4 mph - N/A Thunderstorm Overcast
11:55 PM 73.4 °F - 68.0 °F 83% 29.94 in 10.0 mi North 6.9 mph - N/A   Overcast